Location: *
(32.8667°N, 13.1833°E)
Time: 20:30:39
(UTC+00:00)

Iridium 4 Rocket - Pass Details

Date: 18 July 2019
Orbit: 584 x 905 km, 86.9° (Epoch: 24 August)

Event Time Altitude Azimuth Distance (km) Brightness Sun altitude
Rises 19:50:22 0° 2° (N) 3,535 7.5 -17.6°
Reaches altitude 10° 19:52:53 10° 4° (N) 2,586 6.7 -18.0°
Maximum altitude 19:58:46 69° 88° (E) 944 3.7 -18.9°
Enters shadow 20:01:40 30° 163° (SSE) 1,511 4.5 -19.3°
